Skip Page Navigation
NASA JPL Caltech
NASA Logo - Jet Propulsion Laboratory + View the NASA Portal
+ Near-Earth Object (NEO) Program
Search JPL
JPL Home Earth Solar System Stars & Galaxies Technology
JPL Solar System Dynamics
BODIES ORBITS EPHEMERIDES TOOLS PHYSICAL DATA DISCOVERY FAQ SITE MAP
JPL Small-Body Database Browser
Search: [ help ]  
7350 (1993 VA)
Classification: Apollo [NEO]          SPK-ID: 2007350
Ephemeris | Orbit Diagram | Orbital Elements | Physical Parameters | Discovery Circumstances | Close-Approach Data ]

[ show orbit diagram ]
Orbital Elements at Epoch 2456400.5 (2013-Apr-18.0) TDB
Reference: JPL 90 (heliocentric ecliptic J2000)
 Element Value Uncertainty (1-sigma)   Units 
e .391022622842516 3.9448e-08  
a 1.355680649207023 2.458e-09 AU
q .8255788460172482 5.2989e-08 AU
i 7.261488545884577 4.3904e-06 deg
node 133.1612617587974 6.0917e-05 deg
peri 336.549232391374 6.196e-05 deg
M 81.97416494191964 1.7152e-05 deg
tp 2456269.216839623422
(2012-Dec-07.71683962)
2.7178e-05 JED
period 576.5467421236214
1.58
1.568e-06
4.293e-09
d
yr
n .6244073094125817 1.6982e-09 deg/d
Q 1.885782452396798 3.4191e-09 AU
  Orbit Determination Parameters
   # obs. used (total)      510  
   data-arc span      9874 days (27.03 yr)  
   first obs. used      1986-05-08  
   last obs. used      2013-05-20  
   planetary ephem.      DE405  
   SB-pert. ephem.      SB405-CPV-2  
   condition code      0  
   fit RMS      .55058  
   data source      ORB  
   producer      Otto Matic  
   solution date      2013-May-22 01:47:27  

Additional Information
 Earth MOID = .0805566 AU 
 T_jup = 4.770 
[ show covariance matrix ]

Ephemeris | Orbit Diagram | Orbital Elements | Physical Parameters | Discovery Circumstances | Close-Approach Data ]

Physical Parameter Table
Parameter Symbol Value Units Sigma Reference Notes
absolute magnitude H 17.3 mag n/a PDS3 (MPC 28575)  

7350 (1993 VA)          Discovered 1993-Nov-07 by McNaught, R. H. at Siding Spring (413)
Reference: DISCOVERY.DBLast Updated: 2003-08-29

[ show close-approach data ]
Alternate Designations
 1993 VA = 1963 TL1 = 1986 JN 
Ephemeris | Orbit Diagram | Orbital Elements | Physical Parameters | Discovery Circumstances | Close-Approach Data ]
ABOUT SSD CREDITS/AWARDS PRIVACY/COPYRIGHT GLOSSARY LINKS
FirstGov 2013-May-24 10:06 UT
(server date/time)  
NASA Home Page
Site Manager:   Donald K. Yeomans
Webmaster  Alan B. Chamberlin